NOAA 16 DEB

基本信息
目录编号:
41348
目录名称:
NOAA 16 DEB
国际标识:
2000-055HR
轨道中心:
EARTH
物体状态:
在轨
发射日期:
2000-09-21 UTC
轨道信息
数据来源: 国际轨道数据
星历时间: 2026-09-05T12:34:52+0800
半长轴: 6976.356km
偏心率: 0.0014047
轨道倾角: 98.781°
近地点辐角: 144.217°
升交点赤经: 35.215°
平近点角: 215.999°
近地点: 588.419km
远地点: 608.019km
周期: 96.650分钟
每日圈数: 14.899093
详细信息
发射场:
AFWTR
轨道高度:
LEO
数据来源:
AOE Integration Group
参考系:
TEME
时间系统:
UTC
历元类型:
SGP4
2D轨道图
3D轨道图
轨道高度分析图
轨道倾角分析图
轨道综合分析图
查看轨道综合分析图